User: anonymous   Login
Location: Austin
(30.3000°N, 97.7500°W)
Time: 19:11:50
(UTC-05:00)
Language:

Cosmos 2016 Rocket - Orbit

View from above orbital plane
View from above orbital plane
View from above satellite
View from above satellite

Ground track
Ground track

The orbit data is extracted from the following two-line orbital elements,

1 19922U 89028B   23161.48357764  .00000090  00000-0  75353-4 0  9993
2 19922  82.9595 246.2904 0035193 245.9244 113.8230 13.77287378717636
Epoch (UTC): 10 June 2023 11:36:21
Eccentricity: 0.0035193
inclination: 82.9595°
perigee height: 947 km
apogee height: 999 km
right ascension of ascending node: 246.2904°
argument of perigee: 245.9244°
revolutions per day: 13.77287378
mean anomaly at epoch: 113.8230°
orbit number at epoch: 71763

The dashed part of the orbit path shows where the satellite is in the earth's shadow,  

DLR